• In Belarus
  • List of Countries
  • For 7 days
  • Water Temperature
  • Satellite Maps
  • Weather Map
  • Weather Widgets
  • user-avatar
    Login

    Hourly Weather Viana do Castelo

    Today, 22 September, Saturday

    Time Temperature Precipitation Wind Pressure Humidity
    00:00 +20°C° 0 mm 2 mps 762 mmHg 86%
    01:00 +20°C° 0 mm 2 mps 762 mmHg 86%
    02:00 +20°C° 0 mm 2 mps 762 mmHg 86%
    03:00 +20°C° 0 mm 2 mps 762 mmHg 85%
    04:00 +20°C° 0 mm 2 mps 762 mmHg 85%
    05:00 +20°C° 0 mm 2 mps 762 mmHg 84%
    06:00 +23°C° 0 mm 2 mps 762 mmHg 76%
    07:00 +25°C° 0 mm 2 mps 762 mmHg 67%
    08:00 +27°C° 0 mm 2 mps 763 mmHg 58%
    09:00 +29°C° 0 mm 3 mps 763 mmHg 52%
    10:00 +31°C° 0 mm 3 mps 763 mmHg 45%
    11:00 +34°C° 0 mm 3 mps 763 mmHg 39%
    12:00 +34°C° 0 mm 4 mps 763 mmHg 40%
    13:00 +34°C° 0 mm 4 mps 762 mmHg 40%
    14:00 +34°C° 0 mm 5 mps 762 mmHg 41%
    15:00 +32°C° 0 mm 4 mps 762 mmHg 48%
    16:00 +29°C° 0 mm 4 mps 762 mmHg 55%
    17:00 +27°C° 0 mm 4 mps 762 mmHg 62%
    18:00 +26°C° 0 mm 4 mps 762 mmHg 67%
    19:00 +25°C° 0 mm 4 mps 763 mmHg 72%
    20:00 +22°C° 0 mm 4 mps 763 mmHg 77%
    21:00 +22°C° 0 mm 4 mps 763 mmHg 77%
    22:00 +22°C° 0 mm 4 mps 763 mmHg 78%
    23:00 +22°C° 0 mm 4 mps 763 mmHg 78%

    Tomorrow, 23 September, Sunday

    Time Temperature Precipitation Wind Pressure Humidity
    00:00 +22°C° 0 mm 4 mps 763 mmHg 79%
    01:00 +22°C° 0 mm 4 mps 763 mmHg 79%
    02:00 +21°C° 0 mm 4 mps 762 mmHg 80%
    03:00 +21°C° 0 mm 4 mps 762 mmHg 80%
    04:00 +21°C° 0 mm 4 mps 762 mmHg 80%
    05:00 +21°C° 0 mm 4 mps 762 mmHg 80%
    06:00 +23°C° 0 mm 4 mps 763 mmHg 72%
    07:00 +26°C° 0 mm 4 mps 763 mmHg 64%
    08:00 +28°C° 0 mm 4 mps 763 mmHg 56%
    09:00 +30°C° 0 mm 4 mps 763 mmHg 48%
    10:00 +34°C° 0 mm 4 mps 763 mmHg 41%
    11:00 +36°C° 0 mm 5 mps 763 mmHg 34%
    12:00 +36°C° 0 mm 5 mps 763 mmHg 34%
    13:00 +36°C° 0 mm 6 mps 763 mmHg 33%
    14:00 +36°C° 0 mm 7 mps 762 mmHg 33%
    15:00 +34°C° 0 mm 7 mps 762 mmHg 40%
    16:00 +32°C° 0 mm 7 mps 762 mmHg 47%
    17:00 +30°C° 0 mm 7 mps 762 mmHg 54%
    18:00 +28°C° 0 mm 7 mps 763 mmHg 60%
    19:00 +27°C° 0 mm 7 mps 763 mmHg 66%
    20:00 +26°C° 0 mm 6 mps 763 mmHg 72%
    21:00 +24°C° 0 mm 6 mps 763 mmHg 74%
    22:00 +24°C° 0 mm 6 mps 763 mmHg 77%
    23:00 +23°C° 0 mm 6 mps 763 mmHg 79%

    Day after tomorrow, 24 September, Monday

    Time Temperature Precipitation Wind Pressure Humidity
    00:00 +23°C° 0 mm 6 mps 763 mmHg 78%
    01:00 +23°C° 0 mm 6 mps 763 mmHg 77%
    02:00 +22°C° 0 mm 6 mps 763 mmHg 77%
    03:00 +22°C° 0 mm 5 mps 762 mmHg 77%
    04:00 +22°C° 0 mm 5 mps 762 mmHg 77%
    05:00 +22°C° 0 mm 5 mps 762 mmHg 77%
    06:00 +25°C° 0 mm 5 mps 762 mmHg 70%
    07:00 +26°C° 0 mm 5 mps 763 mmHg 63%
    08:00 +28°C° 0 mm 4 mps 763 mmHg 56%
    09:00 +30°C° 0 mm 4 mps 763 mmHg 49%
    10:00 +34°C° 0 mm 4 mps 762 mmHg 42%
    11:00 +36°C° 0 mm 4 mps 762 mmHg 36%
    12:00 +36°C° 0 mm 4 mps 762 mmHg 34%
    13:00 +37°C° 0 mm 4 mps 761 mmHg 32%
    14:00 +37°C° 0 mm 5 mps 761 mmHg 31%
    15:00 +36°C° 0 mm 5 mps 760 mmHg 36%
    16:00 +34°C° 0 mm 5 mps 760 mmHg 41%
    17:00 +32°C° 0 mm 5 mps 760 mmHg 47%
    18:00 +29°C° 0 mm 5 mps 760 mmHg 51%
    19:00 +28°C° 0 mm 5 mps 761 mmHg 55%
    20:00 +27°C° 0 mm 5 mps 761 mmHg 58%
    21:00 +26°C° 0 mm 5 mps 761 mmHg 59%
    22:00 +26°C° 0 mm 5 mps 761 mmHg 59%
    23:00 +25°C° 0 mm 4 mps 761 mmHg 59%

    25 September, Tuesday

    Time Temperature Precipitation Wind Pressure Humidity
    00:00 +25°C° 0 mm 4 mps 761 mmHg 59%
    01:00 +23°C° 0 mm 4 mps 760 mmHg 60%
    02:00 +22°C° 0 mm 4 mps 760 mmHg 61%
    03:00 +22°C° 0 mm 3 mps 760 mmHg 60%
    04:00 +21°C° 0 mm 3 mps 760 mmHg 59%
    05:00 +21°C° 0 mm 3 mps 760 mmHg 58%
    06:00 +22°C° 0 mm 3 mps 760 mmHg 51%
    07:00 +25°C° 0 mm 3 mps 760 mmHg 44%
    08:00 +26°C° 0 mm 3 mps 760 mmHg 37%
    09:00 +29°C° 0 mm 2 mps 760 mmHg 33%
    10:00 +31°C° 0 mm 2 mps 760 mmHg 28%
    11:00 +35°C° 0 mm 2 mps 760 mmHg 24%
    12:00 +35°C° 0 mm 2 mps 760 mmHg 24%
    13:00 +36°C° 0 mm 2 mps 759 mmHg 24%
    14:00 +36°C° 0 mm 3 mps 759 mmHg 23%
    15:00 +34°C° 0 mm 3 mps 759 mmHg 29%
    16:00 +31°C° 0 mm 3 mps 759 mmHg 35%
    17:00 +29°C° 0 mm 3 mps 759 mmHg 40%
    18:00 +28°C° 0 mm 3 mps 759 mmHg 41%
    19:00 +27°C° 0 mm 2 mps 759 mmHg 42%
    20:00 +26°C° 0 mm 2 mps 760 mmHg 43%
    21:00 +25°C° 0 mm 2 mps 760 mmHg 42%
    22:00 +25°C° 0 mm 2 mps 760 mmHg 41%
    23:00 +24°C° 0 mm 1 mps 760 mmHg 40%

    26 September, Wednesday

    Time Temperature Precipitation Wind Pressure Humidity
    00:00 +24°C° 0 mm 1 mps 760 mmHg 39%
    01:00 +24°C° 0 mm 2 mps 760 mmHg 38%
    02:00 +23°C° 0 mm 2 mps 760 mmHg 38%
    03:00 +23°C° 0 mm 2 mps 760 mmHg 37%
    04:00 +21°C° 0 mm 2 mps 760 mmHg 37%
    05:00 +21°C° 0 mm 2 mps 760 mmHg 37%
    06:00 +24°C° 0 mm 2 mps 760 mmHg 35%
    07:00 +26°C° 0 mm 2 mps 761 mmHg 33%
    08:00 +28°C° 0 mm 2 mps 761 mmHg 31%
    09:00 +30°C° 0 mm 3 mps 761 mmHg 29%
    10:00 +31°C° 0 mm 3 mps 761 mmHg 27%
    11:00 +34°C° 0 mm 3 mps 761 mmHg 25%
    12:00 +34°C° 0 mm 3 mps 761 mmHg 27%
    13:00 +34°C° 0 mm 3 mps 761 mmHg 28%
    14:00 +34°C° 0 mm 3 mps 761 mmHg 30%
    15:00 +31°C° 0 mm 2 mps 761 mmHg 37%
    16:00 +29°C° 0 mm 2 mps 761 mmHg 44%
    17:00 +27°C° 0 mm 1 mps 761 mmHg 50%
    18:00 +26°C° 0 mm 1 mps 762 mmHg 53%
    19:00 +25°C° 0 mm 1 mps 762 mmHg 55%
    20:00 +24°C° 0 mm 1 mps 763 mmHg 58%
    21:00 +24°C° 0 mm 1 mps 762 mmHg 57%
    22:00 +24°C° 0 mm 1 mps 762 mmHg 55%
    23:00 +24°C° 0 mm 1 mps 762 mmHg 54%

    27 September, Thursday

    Time Temperature Precipitation Wind Pressure Humidity
    00:00 +24°C° 0 mm 1 mps 762 mmHg 53%
    01:00 +23°C° 0 mm 1 mps 762 mmHg 52%
    02:00 +23°C° 0 mm 1 mps 762 mmHg 52%
    03:00 +23°C° 0 mm 1 mps 762 mmHg 52%
    04:00 +23°C° 0 mm 1 mps 762 mmHg 52%
    05:00 +23°C° 0 mm 1 mps 762 mmHg 52%
    06:00 +25°C° 0 mm 1 mps 762 mmHg 48%
    07:00 +25°C° 0 mm 0 mps 763 mmHg 44%
    08:00 +27°C° 0 mm 0 mps 763 mmHg 40%
    09:00 +30°C° 0 mm 1 mps 763 mmHg 38%
    10:00 +32°C° 0 mm 1 mps 763 mmHg 35%
    11:00 +34°C° 0 mm 2 mps 763 mmHg 32%
    12:00 +34°C° 0.2 mm 2 mps 762 mmHg 34%
    13:00 +34°C° 0.2 mm 3 mps 762 mmHg 35%
    14:00 +34°C° 0.2 mm 3 mps 761 mmHg 37%
    15:00 +31°C° 0.1 mm 3 mps 761 mmHg 43%
    16:00 +29°C° 0.1 mm 3 mps 761 mmHg 50%
    17:00 +28°C° 0.1 mm 3 mps 761 mmHg 56%
    18:00 +27°C° 0.1 mm 3 mps 761 mmHg 59%
    19:00 +26°C° 0.1 mm 2 mps 762 mmHg 63%
    20:00 +24°C° 0.1 mm 2 mps 762 mmHg 66%
    21:00 +24°C° 0 mm 2 mps 762 mmHg 66%
    22:00 +24°C° 0 mm 2 mps 761 mmHg 66%
    23:00 +24°C° 0 mm 2 mps 761 mmHg 65%
    Show more